H1 CPF 2 NER 2025 12 4 9 338 01 glonass142 H2 2001801 9142 45358 2025 12 4 0 0 0 2025 12 7 23 45 0 900 1 1 0 0 0 1 H9 10 0 61013 0.00000 0 -11812098.369 -22297635.874 -3789609.682 10 0 61013 900.00000 0 -12055541.882 -22484195.208 -598171.759 10 0 61013 1800.00000 0 -12117495.430 -22310606.175 2604874.835 10 0 61013 2700.00000 0 -11951712.655 -21806540.613 5757401.831 10 0 61013 3600.00000 0 -11519977.642 -21012205.058 8798301.379 10 0 61013 4500.00000 0 -10793943.402 -19976548.272 11668664.692 10 0 61013 5400.00000 0 -9756563.128 -18755124.073 14312915.207 10 0 61013 6300.00000 0 -8403054.130 -17407699.640 16679874.982 10 0 61013 7200.00000 0 -6741353.888 -15995709.637 18723744.551 10 0 61013 8100.00000 0 -4792048.776 -14579662.408 20404978.387 10 0 61013 9000.00000 0 -2587777.674 -13216606.047 21691040.191 10 0 61013 9900.00000 0 -172134.341 -11957759.370 22557024.505 10 0 61013 10800.00000 0 2401887.232 -10846405.643 22986133.598 10 0 61013 11700.00000 0 5073841.516 -9916136.001 22970001.118 10 0 61013 12600.00000 0 7778095.184 -9189514.987 22508856.560 10 0 61013 13500.00000 0 10446313.914 -8677223.336 21611527.311 10 0 61013 14400.00000 0 13010070.991 -8377713.476 20295277.714 10 0 61013 15300.00000 0 15403471.128 -8277392.219 18585487.377 10 0 61013 16200.00000 0 17565681.924 -8351323.346 16515173.759 10 0 61013 17100.00000 0 19443268.685 -8564421.188 14124366.883 10 0 61013 18000.00000 0 20992235.882 -8873085.790 11459346.870 10 0 61013 18900.00000 0 22179690.224 -9227211.542 8571757.757 10 0 61013 19800.00000 0 22985055.528 -9572485.105 5517613.665 10 0 61013 20700.00000 0 23400787.996 -9852875.881 2356215.898 10 0 61013 21600.00000 0 23432561.166 -10013213.569 -850998.355 10 0 61013 22500.00000 0 23098912.074 -10001743.144 -4041653.269 10 0 61013 23400.00000 0 22430362.874 -9772548.018 -7153653.793 10 0 61013 24300.00000 0 21468054.557 -9287737.341 -10126402.698 10 0 61013 25200.00000 0 20261950.220 -8519303.053 -12901990.602 10 0 61013 26100.00000 0 18868683.826 -7450566.185 -15426334.577 10 0 61013 27000.00000 0 17349145.639 -6077149.283 -17650242.138 10 0 61013 27900.00000 0 15765906.729 -4407431.971 -19530378.858 10 0 61013 28800.00000 0 14180591.860 -2462468.746 -21030119.972 10 0 61013 29700.00000 0 12651312.067 -275370.999 -22120268.830 10 0 61013 30600.00000 0 11230265.581 2109821.944 -22779627.940 10 0 61013 31500.00000 0 9961608.285 4639736.178 -22995411.414 10 0 61013 32400.00000 0 8879683.275 7253654.833 -22763490.969 10 0 61013 33300.00000 0 8007683.482 9885824.895 -22088471.004 10 0 61013 34200.00000 0 7356802.840 12467982.998 -20983591.752 10 0 61013 35100.00000 0 6925910.525 14931994.776 -19470462.895 10 0 61013 36000.00000 0 6701760.561 17212497.702 -17578633.374 10 0 61013 36900.00000 0 6659726.369 19249437.289 -15345006.370 10 0 61013 37800.00000 0 6765027.585 20990391.173 -12813111.436 10 0 61013 38700.00000 0 6974395.766 22392584.644 -10032248.542 10 0 61013 39600.00000 0 7238107.128 23424514.290 -7056521.336 10 0 61013 40500.00000 0 7502295.110 24067113.034 -3943779.011 10 0 61013 41400.00000 0 7711444.011 24314409.250 -754487.903 10 0 61013 42300.00000 0 7810957.509 24173653.890 2449444.769 10 0 61013 43200.00000 0 7749693.104 23664911.966 5605871.838 10 0 61013 44100.00000 0 7482355.185 22820137.045 8653608.428 10 0 61013 45000.00000 0 6971645.796 21681768.928 11533612.198 10 0 61013 45900.00000 0 6190082.492 20300914.311 14190119.189 10 0 61013 46800.00000 0 5121406.921 18735187.287 16571713.885 10 0 61013 47700.00000 0 3761524.914 17046300.273 18632313.686 10 0 61013 48600.00000 0 2118938.438 15297505.864 20332049.793 10 0 61013 49500.00000 0 214650.747 13550995.819 21638028.679 10 0 61013 50400.00000 0 -1918452.176 11865364.820 22524960.469 10 0 61013 51300.00000 0 -4236719.400 10293243.601 22975643.123 10 0 61013 52200.00000 0 -6687307.134 8879198.885 22981293.735 10 0 61013 53100.00000 0 -9210141.571 7657986.516 22541720.886 10 0 61013 54000.00000 0 -11740192.947 6653229.611 21665334.688 10 0 61013 54900.00000 0 -14209968.328 5876576.164 20368993.805 10 0 61013 55800.00000 0 -16552121.363 5327370.906 18677691.539 10 0 61013 56700.00000 0 -18702072.057 4992855.059 16624085.887 10 0 61013 57600.00000 0 -20600528.700 4848885.833 14247881.261 10 0 61013 58500.00000 0 -22195807.484 4861145.891 11595072.427 10 0 61013 59400.00000 0 -23445853.234 4986792.412 8717064.011 10 0 61013 60300.00000 0 -24319876.490 5176476.691 5669681.489 10 0 61013 61200.00000 0 -24799537.775 5376649.308 2512092.148 10 0 61013 62100.00000 0 -24879628.493 5532053.350 -694343.412 10 0 61013 63000.00000 0 -24568218.907 5588299.743 -3887266.853 10 0 61013 63900.00000 0 -23886266.045 5494414.773 -7004541.021 10 0 61013 64800.00000 0 -22866697.290 5205250.610 -9985467.690 10 0 61013 65700.00000 0 -21553007.755 4683655.122 -12771979.460 10 0 61013 66600.00000 0 -19997430.356 3902307.315 -15309781.400 10 0 61013 67500.00000 0 -18258755.804 2845138.768 -17549419.141 10 0 61013 68400.00000 0 -16399894.658 1508279.134 -19447251.621 10 0 61013 69300.00000 0 -14485284.600 -99516.030 -20966308.717 10 0 61013 70200.00000 0 -12578252.544 -1956974.652 -22077016.519 10 0 61013 71100.00000 0 -10738442.933 -4030951.494 -22757775.859 10 0 61013 72000.00000 0 -9019420.550 -6277579.355 -22995382.725 10 0 61013 72900.00000 0 -7466548.462 -8643880.576 -22785282.564 10 0 61013 73800.00000 0 -6115229.795 -11069771.697 -22131653.830 10 0 61013 74700.00000 0 -4989586.371 -13490377.600 -21047319.562 10 0 61013 75600.00000 0 -4101628.527 -15838558.376 -19553489.244 10 0 61013 76500.00000 0 -3450949.463 -18047543.328 -17679336.471 10 0 61013 77400.00000 0 -3024955.246 -20053562.016 -15461421.285 10 0 61013 78300.00000 0 -2799618.844 -21798362.520 -12942968.960 10 0 61013 79200.00000 0 -2740724.463 -23231511.973 -10173019.912 10 0 61013 80100.00000 0 -2805547.836 -24312383.655 -7205467.899 10 0 61013 81000.00000 0 -2944899.824 -25011748.306 -4098005.811 10 0 61013 81900.00000 0 -3105445.562 -25312904.078 -911000.118 10 0 61013 82800.00000 0 -3232200.040 -25212299.008 2293683.668 10 0 61013 83700.00000 0 -3271093.859 -24719621.293 5453881.346 10 0 61013 84600.00000 0 -3171500.322 -23857354.925 8508332.790 10 0 61013 85500.00000 0 -2888616.993 -22659820.558 11397863.851 10 0 61014 0.00000 0 -2385601.354 -21171742.908 14066524.630 10 0 61014 900.00000 0 -1635370.423 -19446404.476 16462664.157 10 0 61014 1800.00000 0 -621989.434 -17543465.102 18539917.975 10 0 61014 2700.00000 0 658409.639 -15526535.610 20258095.403 10 0 61014 3600.00000 0 2197217.936 -13460608.100 21583946.859 10 0 61014 4500.00000 0 3973465.992 -11409448.335 22491798.992 10 0 61014 5400.00000 0 5954462.576 -9433057.700 22964046.092 10 0 61014 6300.00000 0 8096930.879 -7585309.015 22991489.028 10 0 61014 7200.00000 0 10348596.447 -5911853.259 22573515.480 10 0 61014 8100.00000 0 12650162.671 -4448383.023 21718117.982 10 0 61014 9000.00000 0 14937593.672 -3219324.019 20441748.910 10 0 61014 9900.00000 0 17144611.485 -2237008.445 18769014.371 10 0 61014 10800.00000 0 19205305.236 -1501364.280 16732211.726 10 0 61014 11700.00000 0 21056744.963 -1000133.410 14370718.325 10 0 61014 12600.00000 0 22641491.801 -709609.553 11730241.855 10 0 61014 13500.00000 0 23909900.057 -595865.251 8861945.520 10 0 61014 14400.00000 0 24822114.659 -616416.635 5821463.868 10 0 61014 15300.00000 0 25349679.667 -722255.900 2667827.623 10 0 61014 16200.00000 0 25476689.402 -860165.702 -537681.958 10 0 61014 17100.00000 0 25200432.673 -975217.179 -3732726.930 10 0 61014 18000.00000 0 24531501.836 -1013345.213 -6855130.980 10 0 61014 18900.00000 0 23493360.969 -923890.721 -9844097.788 10 0 61014 19800.00000 0 22121390.502 -662000.898 -12641404.687 10 0 61014 20700.00000 0 20461447.893 -190784.081 -15192547.277 10 0 61014 21600.00000 0 18568004.726 516873.781 -17447811.568 10 0 61014 22500.00000 0 16501938.560 1476909.714 -19363251.828 10 0 61014 23400.00000 0 14328072.703 2693162.223 -20901554.237 10 0 61014 24300.00000 0 12112567.597 4156968.166 -22032768.974 10 0 61014 25200.00000 0 9920273.706 5847296.329 -22734896.208 10 0 61014 26100.00000 0 7812157.248 7731413.099 -22994314.468 10 0 61014 27000.00000 0 5842906.690 9766053.034 -22806043.220 10 0 61014 27900.00000 0 4058820.020 11899045.670 -22173834.854 10 0 61014 28800.00000 0 2496060.672 14071330.558 -21110094.676 10 0 61014 29700.00000 0 1179354.112 16219276.185 -19635631.005 10 0 61014 30600.00000 0 121178.283 18277205.588 -17779240.725 10 0 61014 31500.00000 0 -678519.885 20180022.820 -15577138.983 10 0 61014 32400.00000 0 -1232072.019 21865830.248 -13072244.680 10 0 61014 33300.00000 0 -1563312.668 23278427.174 -10313336.287 10 0 61014 34200.00000 0 -1706315.290 24369585.335 -7354095.029 10 0 61014 35100.00000 0 -1703695.184 25101006.417 -4252054.676 10 0 61014 36000.00000 0 -1604552.780 25445880.217 -1067478.882 10 0 61014 36900.00000 0 -1462145.627 25389979.030 2137811.539 10 0 61014 37800.00000 0 -1331388.539 24932243.400 5301638.329 10 0 61014 38700.00000 0 -1266288.229 24084835.790 8362669.011 10 0 61014 39600.00000 0 -1317421.153 22872660.959 11261600.376 10 0 61014 40500.00000 0 -1529561.038 21332374.025 13942299.627 10 0 61014 41400.00000 0 -1939556.003 19510918.309 16352881.747 10 0 61014 42300.00000 0 -2574544.410 17463654.341 18446703.072 10 0 61014 43200.00000 0 -3450584.312 15252157.951 20183252.943 10 0 61014 44100.00000 0 -4571754.027 12941778.688 21528927.362 10 0 61014 45000.00000 0 -5929761.875 10599059.292 22457670.827 10 0 61014 45900.00000 0 -7504082.081 8289122.327 22951474.935 10 0 61014 46800.00000 0 -9262612.284 6073131.147 23000724.887 10 0 61014 47700.00000 0 -11162826.655 4005929.240 22604387.553 10 0 61014 48600.00000 0 -13153378.278 2133954.577 21770037.447 10 0 61014 49500.00000 0 -15176085.944 493514.404 20513719.661 10 0 61014 50400.00000 0 -17168224.425 -890508.706 18859651.531 10 0 61014 51300.00000 0 -19065024.497 -2005466.339 16839767.667 10 0 61014 52200.00000 0 -20802279.853 -2851235.862 14493115.744 10 0 61014 53100.00000 0 -22318953.019 -3439982.092 11865113.356 10 0 61014 54000.00000 0 -23559671.763 -3795398.900 9006678.971 10 0 61014 54900.00000 0 -24477011.457 -3951462.494 5973252.704 10 0 61014 55800.00000 0 -25033467.092 -3950748.662 2823725.153 10 0 61014 56700.00000 0 -25203031.179 -3842385.018 -380705.314 10 0 61014 57600.00000 0 -24972309.962 -3679724.973 -3577724.585 10 0 61014 58500.00000 0 -24341129.558 -3517842.410 -6705120.484 10 0 61014 59400.00000 0 -23322605.105 -3410954.022 -9702001.682 10 0 61014 60300.00000 0 -21942668.770 -3409879.692 -12509993.114 10 0 61014 61200.00000 0 -20239075.470 -3559649.958 -15074383.476 10 0 61014 62100.00000 0 -18259927.497 -3897363.485 -17345201.377 10 0 61014 63000.00000 0 -16061779.680 -4450386.891 -19278198.196 10 0 61014 63900.00000 0 -13707404.670 -5234974.671 -20835717.676 10 0 61014 64800.00000 0 -11263312.275 -6255368.966 -21987434.757 10 0 61014 65700.00000 0 -8797127.056 -7503418.463 -22710948.991 10 0 61014 66600.00000 0 -6374934.310 -8958733.449 -22992220.852 10 0 61014 67500.00000 0 -4058705.576 -10589371.245 -22825842.638 10 0 61014 68400.00000 0 -1903911.199 -12353023.655 -22215138.948 10 0 61014 69300.00000 0 42580.676 -14198656.738 -21172095.187 10 0 61014 70200.00000 0 1744231.671 -16068534.079 -19717115.991 10 0 61014 71100.00000 0 3176116.312 -17900538.531 -17878618.763 10 0 61014 72000.00000 0 4325708.603 -19630694.803 -15692470.826 10 0 61014 72900.00000 0 5193141.047 -21195786.852 -13201281.713 10 0 61014 73800.00000 0 5790927.401 -22535960.183 -10453564.966 10 0 61014 74700.00000 0 6143163.099 -23597199.786 -7502786.389 10 0 61014 75600.00000 0 6284239.234 -24333579.926 -4406317.865 10 0 61014 76500.00000 0 6257126.382 -24709191.738 -1224317.672 10 0 61014 77400.00000 0 6111302.457 -24699668.237 1981440.443 10 0 61014 78300.00000 0 5900413.524 -24293243.520 5148766.293 10 0 61014 79200.00000 0 5679767.350 -23491302.511 8216256.971 10 0 61014 80100.00000 0 5503766.148 -22308399.047 11124481.910 10 0 61014 81000.00000 0 5423387.071 -20771742.244 13817126.674 10 0 61014 81900.00000 0 5483816.609 -18920173.167 16242073.963 10 0 61014 82800.00000 0 5722338.250 -16802674.740 18352401.719 10 0 61014 83700.00000 0 6166561.942 -14476476.951 20107280.139 10 0 61014 84600.00000 0 6833069.443 -12004835.695 21472751.399 10 0 61014 85500.00000 0 7726532.351 -9454576.777 22422378.174 10 0 61015 0.00000 0 8839339.943 -6893506.112 22937749.405 10 0 61015 900.00000 0 10151753.661 -4387790.794 23008834.516 10 0 61015 1800.00000 0 11632581.361 -1999421.558 22634179.030 10 0 61015 2700.00000 0 13240346.514 216144.178 21820938.735 10 0 61015 3600.00000 0 14924903.848 2212058.903 20584750.493 10 0 61015 4500.00000 0 16629436.253 3951797.476 18949441.719 10 0 61015 5400.00000 0 18292751.243 5410434.932 16946582.908 10 0 61015 6300.00000 0 19851782.528 6575436.949 14614890.511 10 0 61015 7200.00000 0 21244193.167 7446930.249 11999490.274 10 0 61015 8100.00000 0 22410972.001 8037441.675 9151053.984 10 0 61015 9000.00000 0 23298914.606 8371116.787 6124825.184 10 0 61015 9900.00000 0 23862884.222 8482450.705 2979552.020 10 0 61015 10800.00000 0 24067756.723 8414584.615 -223652.498 10 0 61015 11700.00000 0 23889966.521 8217239.985 -3422500.652 10 0 61015 12600.00000 0 23318586.816 7944378.184 -6554746.991 10 0 61015 13500.00000 0 22355897.047 7651685.227 -9559407.712 10 0 61015 14400.00000 0 21017412.099 7393989.137 -12377957.754 10 0 61015 15300.00000 0 19331370.661 7222720.512 -14955481.124 10 0 61015 16200.00000 0 17337703.152 7183525.262 -17241751.025 10 0 61015 17100.00000 0 15086521.842 7314132.011 -19192217.699 10 0 61015 18000.00000 0 12636196.139 7642565.872 -20768883.971 10 0 61015 18900.00000 0 10051093.600 8185785.373 -21941050.830 10 0 61015 19800.00000 0 7399081.325 8948801.266 -22685918.253 10 0 61015 20700.00000 0 4748892.449 9924315.245 -22989029.447 10 0 61015 21600.00000 0 2167467.891 11092894.423 -22844550.009 10 0 61015 22500.00000 0 -282615.638 12423674.586 -22255376.857 10 0 61015 23400.00000 0 -2545524.255 13875562.693 -21233075.194 10 0 61015 24300.00000 0 -4574253.470 15398887.964 -19797645.230 10 0 61015 25200.00000 0 -6332336.563 16937431.893 -17977123.700 10 0 61015 26100.00000 0 -7795104.732 18430751.487 -15807028.498 10 0 61015 27000.00000 0 -8950448.046 19816697.711 -13329657.818 10 0 61015 27900.00000 0 -9799047.401 21034022.972 -10593257.995 10 0 61015 28800.00000 0 -10354069.931 22024967.752 -7651076.888 10 0 61015 29700.00000 0 -10640343.015 22737717.585 -4560321.834 10 0 61015 30600.00000 0 -10693043.863 23128627.163 -1381042.963 10 0 61015 31500.00000 0 -10555961.913 23164118.350 1825035.834 10 0 61015 32400.00000 0 -10279409.033 22822172.792 4995715.229 10 0 61015 33300.00000 0 -9917867.005 22093356.979 8069524.597 10 0 61015 34200.00000 0 -9527472.436 20981337.366 10986908.648 10 0 61015 35100.00000 0 -9163445.615 19502864.469 13691373.822 10 0 61015 36000.00000 0 -8877571.749 17687226.998 16130572.915 10 0 61015 36900.00000 0 -8715840.392 15575198.970 18257307.699 10 0 61015 37800.00000 0 -8716341.924 13217523.537 20030431.268 10 0 61015 38700.00000 0 -8907508.967 10672996.106 21415633.807 10 0 61015 39600.00000 0 -9306776.146 8006225.579 22386097.754 10 0 61015 40500.00000 0 -9919714.217 5285165.424 22923010.726 10 0 61015 41400.00000 0 -10739674.991 2578515.483 23015927.108 10 0 61015 42300.00000 0 -11747962.497 -46899.343 22662971.706 10 0 61015 43200.00000 0 -12914524.175 -2528666.588 21870881.590 10 0 61015 44100.00000 0 -14199134.529 -4811136.224 20654884.874 10 0 61015 45000.00000 0 -15553023.262 -6847487.000 19038417.967 10 0 61015 45900.00000 0 -16920881.392 -8601424.328 17052685.619 10 0 61015 46800.00000 0 -18243162.905 -10048439.828 14736070.892 10 0 61015 47700.00000 0 -19458586.731 -11176580.347 12133405.060 10 0 61015 48600.00000 0 -20506734.979 -11986694.519 9295110.218 10 0 61015 49500.00000 0 -21330638.662 -12492146.424 6276230.058 10 0 61015 50400.00000 0 -21879241.982 -12718008.229 3135366.801 10 0 61015 51300.00000 0 -22109640.773 -12699765.637 -66455.452 10 0 61015 52200.00000 0 -21988999.589 -12481590.725 -3266978.948 10 0 61015 53100.00000 0 -21496065.128 -12114255.293 -6403928.475 10 0 61015 54000.00000 0 -20622210.440 -11652773.437 -9416231.173 10 0 61015 54900.00000 0 -19371964.124 -11153873.839 -12245215.230 10 0 61015 55800.00000 0 -17763000.535 -10673409.768 -14835763.002 10 0 61015 56700.00000 0 -15825589.953 -10263817.627 -17137394.997 10 0 61015 57600.00000 0 -13601530.641 -9971732.863 -19105262.650 10 0 61015 58500.00000 0 -11142606.846 -9835865.374 -20701029.686 10 0 61015 59400.00000 0 -8508636.884 -9885225.344 -21893624.377 10 0 61015 60300.00000 0 -5765192.805 -10137775.449 -22659847.707 10 0 61015 61200.00000 0 -2981086.957 -10599567.003 -22984825.521 10 0 61015 62100.00000 0 -225730.500 -11264396.951 -22862295.969 10 0 61015 63000.00000 0 2433525.952 -12114000.319 -22294726.939 10 0 61015 63900.00000 0 4933958.729 -13118769.950 -21293261.562 10 0 61015 64800.00000 0 7219837.919 -14238972.898 -19877493.319 10 0 61015 65700.00000 0 9244496.609 -15426411.846 -18075075.622 10 0 61015 66600.00000 0 10972017.217 -16626461.029 -15921174.016 10 0 61015 67500.00000 0 12378465.924 -17780390.363 -13457772.223 10 0 61015 68400.00000 0 13452625.368 -18827879.386 -10732846.098 10 0 61015 69300.00000 0 14196196.933 -19709614.642 -7799422.224 10 0 61015 70200.00000 0 14623466.369 -20369860.819 -4714540.037 10 0 61015 71100.00000 0 14760449.056 -20758897.181 -1538138.247 10 0 61015 72000.00000 0 14643552.997 -20835216.752 1668112.236 10 0 61015 72900.00000 0 14317817.751 -20567395.868 4842005.828 10 0 61015 73800.00000 0 13834805.088 -19935555.811 7922006.789 10 0 61015 74700.00000 0 13250231.399 -18932355.500 10848437.344 10 0 61015 75600.00000 0 12621442.310 -17563473.942 13564626.686 10 0 61015 76500.00000 0 12004836.113 -15847562.502 16017999.173 10 0 61015 77400.00000 0 11453344.273 -13815668.992 18161081.495 10 0 61015 78300.00000 0 11014074.502 -11510157.426 19952410.343 10 0 61015 79200.00000 0 10726214.732 -8983167.805 21357324.255 10 0 61015 80100.00000 0 10619285.274 -6294679.116 22348625.435 10 0 61015 81000.00000 0 10711811.882 -3510254.700 22907099.846 10 0 61015 81900.00000 0 11010474.962 -698561.967 23021886.323 10 0 61015 82800.00000 0 11509770.627 2071232.411 22690688.031 10 0 61015 83700.00000 0 12192198.176 4732085.674 21919822.220 10 0 61015 84600.00000 0 13028967.000 7221613.514 20724106.943 10 0 61015 85500.00000 0 13981194.450 9484432.325 19126586.103 10 0 61016 0.00000 0 15001545.734 11474213.000 17158097.215 10 0 61016 900.00000 0 16036249.054 13155362.755 14856687.757 10 0 61016 1800.00000 0 17027401.273 14504262.810 12266892.701 10 0 61016 2700.00000 0 17915470.056 15510013.995 9438882.319 10 0 61016 3600.00000 0 18641886.437 16174656.284 6427498.172 10 0 61016 4500.00000 0 19151619.202 16512853.945 3291194.188 10 0 61016 5400.00000 0 19395622.014 16551059.092 90903.095 10 0 61016 6300.00000 0 19333049.049 16326188.676 -3111149.788 10 0 61016 7200.00000 0 18933144.207 15883870.745 -6252661.920 10 0 61016 8100.00000 0 18176722.431 15276334.253 -9272473.703 10 0 61016 9000.00000 0 17057178.754 14560032.159 -12111768.738 10 0 61016 9900.00000 0 15580980.601 13793099.092 -14715229.675 10 0 61016 10800.00000 0 13767620.865 13032752.103 -17032126.066 10 0 61016 11700.00000 0 11649032.189 12332745.487 -19017312.046 10 0 61016 12600.00000 0 9268485.865 11740988.393 -20632113.556 10 0 61016 13500.00000 0 6679020.667 11297426.862 -21845087.268 10 0 61016 14400.00000 0 3941466.863 11032280.544 -22632636.113 10 0 61016 15300.00000 0 1122147.776 10964709.076 -22979469.293 10 0 61016 16200.00000 0 -1709645.222 11101964.622 -22878897.969 10 0 61016 17100.00000 0 -4484298.974 11439066.293 -22332961.127 10 0 61016 18000.00000 0 -7134535.766 11959009.852 -21352379.564 10 0 61016 18900.00000 0 -9597971.012 12633503.349 -19956339.337 10 0 61016 19800.00000 0 -11819465.202 13424196.988 -18172109.394 10 0 61016 20700.00000 0 -13753172.802 14284354.566 -16034501.370 10 0 61016 21600.00000 0 -15364203.675 15160895.211 -13585182.592 10 0 61016 22500.00000 0 -16629829.048 15996718.504 -10871856.237 10 0 61016 23400.00000 0 -17540183.323 16733214.211 -7947325.210 10 0 61016 24300.00000 0 -18098434.278 17312850.173 -4868458.537 10 0 61016 25200.00000 0 -18320416.676 17681728.802 -1695080.947 10 0 61016 26100.00000 0 -18233746.734 17792004.143 1511192.197 10 0 61016 27000.00000 0 -17876456.695 17604057.589 4688151.607 10 0 61016 27900.00000 0 -17295208.666 17088340.734 7774198.942 10 0 61016 28800.00000 0 -16543164.264 16226808.023 10709536.417 10 0 61016 29700.00000 0 -15677600.634 15013879.250 13437318.375 10 0 61016 30600.00000 0 -14757373.606 13456891.672 15904743.073 10 0 61016 31500.00000 0 -13840334.616 11576022.777 18064064.323 10 0 61016 32400.00000 0 -12980809.526 9403686.685 19873504.488 10 0 61016 33300.00000 0 -12227244.428 6983428.714 21298052.329 10 0 61016 34200.00000 0 -11620116.302 4368363.237 22310131.460 10 0 61016 35100.00000 0 -11190195.191 1619218.431 22890127.544 10 0 61016 36000.00000 0 -10957229.905 -1197932.495 23026764.907 10 0 61016 36900.00000 0 -10929111.807 -4014161.273 22717325.726 10 0 61016 37800.00000 0 -11101551.532 -6760294.430 21967707.682 10 0 61016 38700.00000 0 -11458282.471 -9369536.663 20792318.553 10 0 61016 39600.00000 0 -11971783.116 -11780000.600 19213809.048 10 0 61016 40500.00000 0 -12604488.950 -13937039.275 17262647.893 10 0 61016 41400.00000 0 -13310444.138 -15795285.423 14976546.057 10 0 61016 42300.00000 0 -14037324.766 -17320313.224 12399739.814 10 0 61016 43200.00000 0 -14728749.511 -18489853.444 9582145.169 10 0 61016 44100.00000 0 -15326781.104 -19294511.061 6578398.805 10 0 61016 45000.00000 0 -15774513.347 -19737954.996 3446803.376 10 0 61016 45900.00000 0 -16018634.249 -19836571.578 248197.100 10 0 61016 46800.00000 0 -16011856.255 -19618595.945 -2955230.394 10 0 61016 47700.00000 0 -15715109.608 -19122757.716 -6101152.552 10 0 61016 48600.00000 0 -15099404.554 -18396498.076 -9128326.369 10 0 61016 49500.00000 0 -14147281.821 -17493833.777 -11977794.160 10 0 61016 50400.00000 0 -12853788.163 -16472958.838 -14594042.076 10 0 61016 51300.00000 0 -11226933.872 -15393686.016 -16926091.734 10 0 61016 52200.00000 0 -9287611.209 -14314837.007 -18928502.716 10 0 61016 53100.00000 0 -7068975.653 -13291692.577 -20562265.535 10 0 61016 54000.00000 0 -4615314.762 -12373611.090 -21795567.142 10 0 61016 54900.00000 0 -1980451.153 -11601916.592 -22604413.723 10 0 61016 55800.00000 0 774254.095 -11008145.982 -22973098.547 10 0 61016 56700.00000 0 3582214.525 -10612729.238 -22894505.886 10 0 61016 57600.00000 0 6374151.470 -10424158.142 -22370245.346 10 0 61016 58500.00000 0 9080741.710 -10438678.026 -21410614.371 10 0 61016 59400.00000 0 11635269.393 -10640514.737 -20034390.094 10 0 61016 60300.00000 0 13976171.912 -11002626.330 -18268455.065 10 0 61016 61200.00000 0 16049374.034 -11487946.648 -16147264.661 10 0 61016 62100.00000 0 17810313.642 -12051067.240 -13712167.096 10 0 61016 63000.00000 0 19225575.583 -12640285.493 -11010589.804 10 0 61016 63900.00000 0 20274066.633 -13199931.523 -8095108.640 10 0 61016 64800.00000 0 20947684.099 -13672874.666 -5022418.628 10 0 61016 65700.00000 0 21251451.851 -14003103.071 -1852226.790 10 0 61016 66600.00000 0 21203120.040 -14138266.994 1353910.793 10 0 61016 67500.00000 0 20832247.234 -14032078.179 4533784.741 10 0 61016 68400.00000 0 20178805.271 -13646464.078 7625737.469 10 0 61016 69300.00000 0 19291366.971 -12953386.199 10569854.178 10 0 61016 70200.00000 0 18224953.958 -11936246.188 13309116.925 10 0 61016 71100.00000 0 17038635.633 -10590820.670 15790499.938 10 0 61016 72000.00000 0 15792980.326 -8925685.605 17965985.737 10 0 61016 72900.00000 0 14547465.233 -6962112.132 19793483.449 10 0 61016 73800.00000 0 13357953.086 -4733437.674 21237632.716 10 0 61016 74700.00000 0 12274340.273 -2283937.628 22270478.798 10 0 61016 75600.00000 0 11338473.791 332756.682 22872006.925 10 0 61016 76500.00000 0 10582423.077 3055629.632 23030526.419 10 0 61016 77400.00000 0 10027178.108 5818562.454 22742897.662 10 0 61016 78300.00000 0 9681827.560 8552831.258 22014597.650 10 0 61016 79200.00000 0 9543251.157 11189720.256 20859622.505 10 0 61016 80100.00000 0 9596339.186 13663143.527 19300228.102 10 0 61016 81000.00000 0 9814730.458 15912168.010 17366512.703 10 0 61016 81900.00000 0 10162038.462 17883333.992 15095848.338 10 0 61016 82800.00000 0 10593515.079 19532677.169 12532170.490 10 0 61016 83700.00000 0 11058082.696 20827368.245 9725138.470 10 0 61016 84600.00000 0 11500649.769 21746901.457 6729181.526 10 0 61016 85500.00000 0 11864612.483 22283781.849 3602448.371 99